Location: Mauries
(43.6188°N, 0.3322°W)
Time: 18:36:32
(UTC+00:00)

Cosmos 1833 Rocket - Pass Details

Date: 14 January 2026
Orbit: 831 x 839 km, 71.0° (Epoch: 11 February)

Event Time Altitude Azimuth Distance (km) Brightness Sun altitude
Exits shadow 05:25:16 39° 323° (NW) 1,229 3.2 -22.5°
Maximum altitude 05:27:22 73° 248° (WSW) 873 2.5 -22.1°
Drops below altitude 10° 05:32:56 10° 165° (SSE) 2,436 5.4 -21.1°
Sets 05:35:22 0° 163° (SSE) 3,365 6.2 -20.7°
